DL9MSR Weather Reports


time (UTC)temp
C
wind
direction
speed
KPH
gust
KPH
rain 1hr
cm
rain 24hr
cm
rain mn
cm
humidity
%
barometer
mb
20260502130540 27 293 1.6 14.5 0.00 0.00 0.00 35 1016.8
20260502123521 27 293 3.2 11.3 0.00 0.00 0.00 36 1017.1
20260502122520 27 0.0 0.0 0.00 0.00 0.00 35 1017.1
20260502121519 27 0.0 8.0 0.00 0.00 0.00 34 1017.2
20260502120519 27 293 1.6 8.0 0.00 0.00 0.00 35 1017.3
20260502115520 27 293 1.6 8.0 0.00 0.00 0.00 33 1017.6
20260502114522 27 293 1.6 11.3 0.00 0.00 0.00 34 1017.7
20260502113519 27 293 1.6 9.7 0.00 0.00 0.00 33 1017.7
20260502112519 27 0.0 6.4 0.00 0.00 0.00 34 1017.9
20260502111519 27 293 1.6 9.7 0.00 0.00 0.00 35 1017.9
20260502110522 26 293 1.6 9.7 0.00 0.00 0.00 34 1018.1
20260502105539 26 293 1.6 6.4 0.00 0.00 0.00 35 1018.2
20260502104519 26 0.0 4.8 0.00 0.00 0.00 35 1018.3
20260502103519 26 113 1.6 11.3 0.00 0.00 0.00 38 1018.3
20260502102540 25 293 1.6 9.7 0.00 0.00 0.00 38 1018.4
20260502101519 25 248 1.6 8.0 0.00 0.00 0.00 39 1018.6
20260502100519 25 270 1.6 11.3 0.00 0.00 0.00 40 1018.8
20260502090520 23 0.0 0.0 0.00 0.00 0.00 45 1019.2
20260502070530 -17 0.0 0.0 0.00 0.00 0.00
20260502070018 -17 0.0 0.0 0.00 0.00 0.00
20260502065018 -17 0.0 0.0 0.00 0.00 0.00
20260502064608 17 0.0 0.0 0.00 0.00 0.00 62 1020.1
20260502064025 17 0.0 0.0 0.00 0.00 0.00 62 1020.2
20260502063519 16 0.0 4.8 0.00 0.00 0.00 62 1020.1
20260502062518 16 0.0 0.0 0.00 0.00 0.00 67 1020.2
20260502061538 15 0.0 1.6 0.00 0.00 0.00 68 1020.3
20260502060538 15 0.0 3.2 0.00 0.00 0.00 70 1020.4
20260502055519 13 0.0 0.0 0.00 0.00 0.00 73 1020.5
20260502054521 12 0.0 0.0 0.00 0.00 0.00 78 1020.5
20260502053519 11 0.0 0.0 0.00 0.00 0.00 84 1020.5
20260502052519 10 0.0 0.0 0.00 0.00 0.00 88 1020.6
20260502051520 8 0.0 0.0 0.00 0.00 0.00 89 1020.5
20260502050518 8 0.0 0.0 0.00 0.00 0.00 90 1020.5
20260502045520 8 0.0 0.0 0.00 0.00 0.00 91 1020.5
20260502044520 7 0.0 0.0 0.00 0.00 0.00 90 1020.5
20260502043518 7 0.0 0.0 0.00 0.00 0.00 89 1020.5
20260502042520 7 0.0 0.0 0.00 0.00 0.00 88 1020.5
20260502041520 7 0.0 0.0 0.00 0.00 0.00 88 1020.5
20260502040520 7 0.0 0.0 0.00 0.00 0.00 88 1020.6
20260502035520 7 0.0 0.0 0.00 0.00 0.00 87 1020.6
20260502034543 7 0.0 0.0 0.00 0.00 0.00 87 1020.7
20260502033520 7 0.0 0.0 0.00 0.00 0.00 87 1020.8
20260502032520 7 0.0 0.0 0.00 0.00 0.00 86 1020.8
20260502031541 7 0.0 0.0 0.00 0.00 0.00 86 1020.9
20260502030520 7 0.0 0.0 0.00 0.00 0.00 86 1021.2
20260502025602 8 0.0 0.0 0.00 0.00 0.00 86 1021.3
20260502024539 8 0.0 0.0 0.00 0.00 0.00 86 1021.3
20260502023520 8 0.0 0.0 0.00 0.00 0.00 86 1021.3
20260502022520 8 0.0 0.0 0.00 0.00 0.00 86 1021.5
20260502021521 8 0.0 0.0 0.00 0.00 0.00 86 1021.6
20260502020520 8 0.0 0.0 0.00 0.00 0.00 85 1021.6
20260502015539 8 0.0 0.0 0.00 0.00 0.00 85 1021.7
20260502014520 8 0.0 0.0 0.00 0.00 0.00 85 1021.7
20260502013520 8 0.0 0.0 0.00 0.00 0.00 85 1021.9
20260502012519 8 0.0 0.0 0.00 0.00 0.00 84 1022.2
20260502011520 8 0.0 0.0 0.00 0.00 0.00 83 1022.2
20260502010519 8 0.0 0.0 0.00 0.00 0.00 83 1022.2
20260502005519 9 0.0 0.0 0.00 0.00 0.00 82 1022.4
20260502004519 9 0.0 0.0 0.00 0.00 0.00 82 1022.4
20260502003519 10 0.0 0.0 0.00 0.00 0.00 81 1022.6
20260502002540 10 0.0 0.0 0.00 0.00 0.00 81 1022.7
20260502001539 10 0.0 0.0 0.00 0.00 0.00 80 1022.7
20260502000519 10 0.0 0.0 0.00 0.00 0.00 80 1022.7
20260501235519 10 0.0 0.0 0.00 0.00 0.00 80 1022.7
20260501234520 10 0.0 0.0 0.00 0.00 0.00 79 1022.8
20260501233600 11 0.0 0.0 0.00 0.00 0.00 78 1022.7
20260501232522 11 0.0 0.0 0.00 0.00 0.00 76 1022.8
20260501231540 11 0.0 0.0 0.00 0.00 0.00 74 1022.8
20260501230519 12 0.0 0.0 0.00 0.00 0.00 72 1022.9
20260501225520 12 0.0 0.0 0.00 0.00 0.00 70 1023.1
20260501224521 13 0.0 0.0 0.00 0.00 0.00 68 1023.1
20260501223520 13 0.0 0.0 0.00 0.00 0.00 67 1023.1
20260501222519 14 0.0 0.0 0.00 0.00 0.00 66 1023.2
20260501221519 15 0.0 0.0 0.00 0.00 0.00 65 1023.2
20260501220539 15 0.0 4.8 0.00 0.00 0.00 64 1023.3
20260501215519 15 0.0 0.0 0.00 0.00 0.00 64 1023.4
20260501214519 15 0.0 0.0 0.00 0.00 0.00 64 1023.4
20260501213520 15 0.0 0.0 0.00 0.00 0.00 64 1023.3
20260501212519 15 0.0 0.0 0.00 0.00 0.00 65 1023.3
20260501211520 15 0.0 1.6 0.00 0.00 0.00 64 1023.4
20260501210520 15 0.0 0.0 0.00 0.00 0.00 64 1023.4
20260501205519 15 0.0 0.0 0.00 0.00 0.00 64 1023.5
20260501204526 15 0.0 0.0 0.00 0.00 0.00 65 1023.5
20260501203540 15 0.0 0.0 0.00 0.00 0.00 65 1023.5
20260501202520 16 0.0 0.0 0.00 0.00 0.00 64 1023.6
20260501201539 16 0.0 0.0 0.00 0.00 0.00 62 1023.7
20260501200522 16 0.0 0.0 0.00 0.00 0.00 61 1023.7
20260501195519 16 0.0 0.0 0.00 0.00 0.00 60 1023.7
20260501194518 17 0.0 0.0 0.00 0.00 0.00 59 1023.7
20260501193519 17 0.0 0.0 0.00 0.00 0.00 59 1023.7
20260501192519 17 0.0 0.0 0.00 0.00 0.00 58 1023.6
20260501191519 18 0.0 0.0 0.00 0.00 0.00 56 1023.8
20260501190519 18 0.0 0.0 0.00 0.00 0.00 54 1023.8
20260501185521 19 0.0 0.0 0.00 0.00 0.00 53 1023.9
20260501184518 20 0.0 0.0 0.00 0.00 0.00 51 1023.9
20260501183519 20 0.0 0.0 0.00 0.00 0.00 49 1023.9
20260501182519 20 0.0 0.0 0.00 0.00 0.00 48 1024.0
20260501181539 21 0.0 0.0 0.00 0.00 0.00 47 1024.1
20260501180520 21 0.0 0.0 0.00 0.00 0.00 46 1024.0
20260501175520 21 0.0 0.0 0.00 0.00 0.00 45 1023.9
20260501174518 21 0.0 1.6 0.00 0.00 0.00 44 1023.9
20260501173519 21 0.0 8.0 0.00 0.00 0.00 43 1023.8
20260501172539 22 90 1.6 9.7 0.00 0.00 0.00 42 1023.8
20260501171518 22 113 3.2 11.3 0.00 0.00 0.00 41 1024.0
20260501170518 22 0.0 0.0 0.00 0.00 0.00 40 1024.0
20260501170147 23 0.0 1.6 0.00 0.00 0.00 39 1024.1
20260501165518 23 270 1.6 6.4 0.00 0.00 0.00 39 1024.1
20260501164518 23 113 3.2 8.0 0.00 0.00 0.00 40 1024.2
20260501163541 23 113 1.6 9.7 0.00 0.00 0.00 39 1024.4
20260501162519 23 113 1.6 4.8 0.00 0.00 0.00 39 1024.4
20260501161519 23 90 1.6 9.7 0.00 0.00 0.00 39 1024.7
20260501160518 23 180 1.6 11.3 0.00 0.00 0.00 38 1024.7
20260501155518 23 90 3.2 14.5 0.00 0.00 0.00 38 1024.8
20260501154520 23 0.0 1.6 0.00 0.00 0.00 37 1025.0
20260501153520 23 68 1.6 8.0 0.00 0.00 0.00 37 1025.1
20260501152520 23 90 3.2 12.9 0.00 0.00 0.00 37 1025.2
20260501151518 23 0.0 0.0 0.00 0.00 0.00 38 1025.2
20260501151021 23 90 1.6 9.7 0.00 0.00 0.00 38 1025.3
20260501145021 23 158 3.2 12.9 0.00 0.00 0.00 38 1025.6
20260501144020 23 90 1.6 11.3 0.00 0.00 0.00 38 1025.7